Torna al catalogo

ONEWEB-0080

AttivoComunicazioniPO
NORAD 45426·PAYLOAD·🇬🇧 United Kingdom

Lanciato Mar 21, 2020 da Baikonur Cosmodrome

Loading…

Prossimi Passaggi (prossime 24 ore)

TLE

AggiornatoSource: CelesTrak SupGP

Epoca: Sep 14, 2026, 09:32 UTC

1 45426C 20020C   26257.39736528 -.00002738  00000+0 -77355-2 0  2577
2 45426  87.8976   3.3392 0001620  93.9941  11.3572 13.11415183    10

Traccia ONEWEB-0080 in tempo reale con AllMySat

Download on the App Store